K4AXV-13 Weather Reports


time (UTC)temp
F
wind
direction
speed
knots
gust
knots
rain 1hr
in
rain 24hr
in
rain mn
in
humidity
%
barometer
mb
20260906011724 80 82 0.0 0.0 0.01 0.00 0.01
20260906010723 80 82 0.9 0.0 0.01 0.00 0.01
20260906005221 81 110 2.6 2.6 0.01 0.00 0.01
20260906004221 83 239 0.0 0.0 0.01 0.00 0.01
20260906002719 84 239 0.0 0.0 0.00 0.00 0.00
20260906002220 84 239 0.0 0.0 0.00 0.00 0.00
20260906001718 84 239 0.0 0.0 0.00 0.00 0.00
20260906000718 85 239 1.7 0.0 0.00 0.00 0.00
20260905234717 85 359 3.5 2.6 0.00 0.00 0.00
20260905234219 85 248 1.7 2.6 0.00 0.00 0.00
20260905232218 87 238 1.7 3.5 0.00 0.00 0.00
20260905230217 88 335 2.6 2.6 0.00 0.00 0.00
20260905225716 88 305 1.7 0.0 0.00 0.00 0.00
20260905224216 89 307 1.7 0.9 0.00 0.00 0.00
20260905222712 90 287 0.0 1.7 0.00 0.00 0.00
20260905220710 91 304 0.0 0.9 0.00 0.00 0.00
20260905220211 92 245 0.9 0.0 0.00 0.00 0.00
20260905215709 92 267 1.7 3.5 0.00 0.00 0.00
20260905214210 92 293 0.9 0.0 0.00 0.00 0.00
20260905213207 92 295 1.7 1.7 0.00 0.00 0.00
20260905212206 91 242 0.0 0.0 0.00 0.00 0.00
20260905211206 93 242 0.0 0.0 0.00 0.00 0.00
20260905210200 93 180 0.0 0.0 0.00 0.00 0.00
20260905205657 93 184 0.0 0.9 0.00 0.00 0.00
20260905204655 93 295 0.0 0.0 0.00 0.00 0.00
20260905204156 93 295 0.0 0.0 0.00 0.00 0.00
20260905203654 93 145 0.0 0.0 0.00 0.00 0.00
20260905203155 93 113 0.0 0.9 0.00 0.00 0.00
20260905202653 93 131 0.9 1.7 0.00 0.00 0.00
20260905195651 92 115 0.9 0.9 0.00 0.00 0.00
20260905195153 93 153 1.7 0.9 0.00 0.00 0.00
20260905194651 93 93 3.5 3.5 0.00 0.00 0.00
20260905192650 93 87 1.7 1.7 0.00 0.00 0.00
20260905192151 92 55 0.0 0.0 0.00 0.00 0.00
20260905191650 93 83 1.7 0.9 0.00 0.00 0.00
20260905191151 93 108 3.5 3.5 0.00 0.00 0.00
20260905190649 93 66 0.9 0.9 0.00 0.00 0.00
20260905190151 94 129 3.5 2.6 0.00 0.00 0.00
20260905185649 94 233 0.0 0.0 0.00 0.00 0.00
20260905185150 94 243 0.0 0.0 0.00 0.00 0.00
20260905184649 95 243 1.7 0.0 0.00 0.00 0.00
20260905184150 94 191 2.6 1.7 0.00 0.00 0.00
20260905183150 94 329 0.9 0.0 0.00 0.00 0.00
20260905182648 94 243 0.9 0.0 0.00 0.00 0.00
20260905182149 93 139 0.0 0.9 0.00 0.00 0.00
20260905181149 93 97 0.9 0.9 0.00 0.00 0.00
20260905180647 93 211 0.0 0.0 0.00 0.00 0.00
20260905175645 92 359 0.9 1.7 0.00 0.00 0.00
20260905175146 93 80 1.7 0.9 0.00 0.00 0.00
20260905174644 93 249 0.9 0.9 0.00 0.00 0.00
20260905173642 93 96 1.7 0.9 0.00 0.00 0.00
20260905173143 93 91 0.0 0.9 0.00 0.00 0.00
20260905172641 92 325 1.7 0.9 0.00 0.00 0.00
20260905171640 92 257 0.9 0.0 0.00 0.00 0.00
20260905170640 92 46 0.9 0.0 0.00 0.00 0.00
20260905165639 91 100 0.9 0.9 0.00 0.00 0.00
20260905164639 92 311 3.5 1.7 0.00 0.00 0.00
20260905164140 92 329 2.6 3.5 0.00 0.00 0.00
20260905163638 91 255 2.6 2.6 0.00 0.00 0.00
20260905163139 91 219 0.9 2.6 0.00 0.00 0.00
20260905162139 91 329 2.6 2.6 0.00 0.00 0.00
20260905161637 90 359 1.7 2.6 0.00 0.00 0.00
20260905161138 90 323 0.9 3.5 0.00 0.00 0.00
20260905160637 90 231 1.7 1.7 0.00 0.00 0.00
20260905160138 90 1 1.7 3.5 0.00 0.00 0.00
20260905155636 90 197 2.6 0.9 0.00 0.00 0.00
20260905154636 89 285 1.7 6.1 0.00 0.00 0.00
20260905154137 89 326 1.7 0.9 0.00 0.00 0.00
20260905153635 89 339 0.0 3.5 0.00 0.00 0.00
20260905153136 89 238 1.7 1.7 0.00 0.00 0.00
20260905152634 89 339 1.7 2.6 0.00 0.00 0.00
20260905151634 89 1 1.7 1.7 0.00 0.00 0.00
20260905151135 89 318 2.6 1.7 0.00 0.00 0.00
20260905150135 88 3 1.7 0.9 0.00 0.00 0.00
20260905145633 87 270 0.0 0.0 0.00 0.00 0.00
20260905145134 87 252 4.3 2.6 0.00 0.00 0.00
20260905144134 86 332 0.9 0.9 0.00 0.00 0.00
20260905142630 85 277 2.6 2.6 0.00 0.00 0.00
20260905141627 84 339 1.7 0.9 0.00 0.00 0.00
20260905141128 83 3 3.5 3.5 0.00 0.00 0.00
20260905135626 83 325 1.7 2.6 0.00 0.00 0.00
20260905134128 82 248 2.6 2.6 0.00 0.00 0.00
20260905133625 81 208 0.9 0.0 0.00 0.00 0.00
20260905132625 81 297 1.7 2.6 0.00 0.00 0.00
20260905131126 81 295 1.7 2.6 0.00 0.00 0.00
20260905130101 76 332 0.0 0.0 0.00 0.00 0.00
20260905125623 81 263 0.9 0.0 0.00 0.00 0.00
20260905125124 80 198 0.0 0.0 0.00 0.00 0.00
20260905124123 80 312 1.7 0.9 0.00 0.00 0.00
20260905123620 80 318 0.0 0.9 0.00 0.00 0.00
20260905123152 80 329 0.9 2.6 0.00 0.00 0.00
20260905123121 80 329 0.9 2.6 0.00 0.00 0.00
20260905122120 79 305 0.9 0.0 0.00 0.00 0.00
20260905121618 79 308 0.0 0.0 0.00 0.00 0.00
20260905120702 78 316 0.0 0.0 0.00 0.00 0.00
20260905120616 78 316 0.0 0.0 0.00 0.00 0.00
20260905120117 79 316 0.0 0.0 0.00 0.00 0.00
20260905115737 78 316 0.0 0.0 0.00 0.00 0.00
20260905115614 78 316 0.0 0.0 0.00 0.00 0.00
20260905114613 77 316 0.0 0.0 0.00 0.00 0.00
20260905114337 77 316 0.0 0.0 0.00 0.00 0.00
20260905114115 77 316 0.0 0.0 0.00 0.00 0.00
20260905111609 76 273 0.0 0.0 0.00 0.00 0.00
20260905110605 75 318 0.0 0.0 0.00 0.00 0.00
20260905110105 75 318 0.0 0.0 0.00 0.00 0.00
20260905105602 75 332 0.0 0.0 0.00 0.00 0.00
20260905105103 74 332 0.0 0.0 0.00 0.00 0.00
20260905104102 75 332 0.0 0.0 0.00 0.00 0.00
20260905102559 74 332 0.0 0.0 0.00 0.00 0.00
20260905102100 75 332 0.0 0.0 0.00 0.00 0.00
20260905101100 75 332 0.0 0.0 0.00 0.00 0.00
20260905100059 75 332 0.0 0.0 0.00 0.00 0.00
20260905095557 75 332 0.0 0.0 0.00 0.00 0.00
20260905094555 75 332 0.0 0.0 0.00 0.00 0.00
20260905094057 75 332 0.0 0.0 0.00 0.00 0.00
20260905093554 75 332 0.0 0.0 0.00 0.00 0.00
20260905093056 75 332 0.0 0.0 0.00 0.00 0.00
20260905092552 75 332 0.0 0.0 0.00 0.00 0.00
20260905091550 75 332 0.0 0.0 0.00 0.00 0.00
20260905091051 75 332 0.0 0.0 0.00 0.00 0.00
20260905090548 75 332 0.0 0.0 0.00 0.00 0.00
20260905090049 75 332 0.0 0.0 0.00 0.00 0.00
20260905085546 75 332 0.0 0.0 0.00 0.00 0.00
20260905085047 75 332 0.0 0.0 0.00 0.00 0.00
20260905084544 76 332 0.0 0.0 0.00 0.00 0.00
20260905083542 76 332 0.0 0.0 0.00 0.00 0.00
20260905083041 76 332 0.0 0.0 0.00 0.00 0.00
20260905082538 75 332 0.0 0.0 0.00 0.00 0.00
20260905082040 76 332 0.0 0.0 0.00 0.00 0.00
20260905081538 75 332 0.0 0.0 0.00 0.00 0.00
20260905081039 76 332 0.0 0.0 0.00 0.00 0.00
20260905075534 76 332 0.0 0.0 0.00 0.00 0.00
20260905073529 76 332 0.0 0.0 0.00 0.00 0.00
20260905072026 76 7 0.0 0.0 0.00 0.00 0.00
20260905071523 76 7 0.0 0.0 0.00 0.00 0.00
20260905071024 76 7 0.0 0.0 0.00 0.00 0.00
20260905070522 76 7 0.0 0.0 0.00 0.00 0.00
20260905070023 77 7 0.0 0.0 0.00 0.00 0.00
20260905065520 76 7 0.0 0.0 0.00 0.00 0.00
20260905065022 77 7 0.0 0.0 0.00 0.00 0.00
20260905064519 76 7 0.0 0.0 0.00 0.00 0.00
20260905064021 77 7 0.0 0.0 0.00 0.00 0.00
20260905063517 77 7 0.0 0.0 0.00 0.00 0.00
20260905063019 76 7 0.0 0.0 0.00 0.00 0.00
20260905062557 77 7 0.0 0.0 0.00 0.00 0.00
20260905062520 77 7 0.0 0.0 0.00 0.00 0.00
20260905062018 76 7 0.0 0.0 0.00 0.00 0.00
20260905061516 76 7 0.0 0.0 0.00 0.00 0.00
20260905061016 76 7 0.0 0.0 0.00 0.00 0.00
20260905060514 77 7 0.0 0.0 0.00 0.00 0.00
20260905054513 77 7 0.0 0.0 0.00 0.00 0.00
20260905053513 77 7 0.0 0.0 0.00 0.00 0.00
20260905053013 77 7 0.0 0.0 0.00 0.00 0.00
20260905052511 77 7 0.0 0.0 0.00 0.00 0.00
20260905052011 77 7 0.0 0.0 0.00 0.00 0.00
20260905051508 77 7 0.0 0.0 0.00 0.00 0.00
20260905051010 77 7 0.0 0.0 0.00 0.00 0.00
20260905050507 78 7 0.0 0.0 0.00 0.00 0.00
20260905050008 78 7 0.0 0.0 0.00 0.00 0.00
20260905045505 77 7 0.0 0.0 0.00 0.00 0.00
20260905045006 78 7 0.0 0.0 0.00 0.00 0.00
20260905044507 78 7 0.0 0.0 0.00 0.00 0.00
20260905044005 78 7 0.0 0.0 0.00 0.00 0.00
20260905043503 78 7 0.0 0.0 0.00 0.00 0.00
20260905043004 78 7 0.0 0.0 0.00 0.00 0.00
20260905042502 78 7 0.0 0.0 0.00 0.00 0.00
20260905041458 78 7 0.0 0.0 0.00 0.00 0.00
20260905040959 79 7 0.0 0.0 0.00 0.00 0.00
20260905040457 79 7 0.0 0.0 0.00 0.00 0.00
20260905035958 78 7 0.0 0.0 0.00 0.00 0.00
20260905035455 78 7 0.0 0.0 0.00 0.00 0.00
20260905035115 78 7 0.0 0.0 0.00 0.00 0.00
20260905034955 78 7 0.0 0.0 0.00 0.00 0.00
20260905034453 78 7 0.0 0.0 0.00 0.00 0.00
20260905033954 79 7 0.0 0.0 0.00 0.00 0.00
20260905033449 79 7 0.0 0.0 0.00 0.00 0.00
20260905032448 79 260 0.0 0.0 0.00 0.00 0.00
20260905031949 79 260 0.0 0.0 0.00 0.00 0.00
20260905031448 78 260 0.0 0.0 0.00 0.00 0.00
20260905030948 79 260 0.0 0.0 0.00 0.00 0.00
20260905030445 79 260 0.0 0.0 0.00 0.00 0.00
20260905025946 79 260 0.0 0.0 0.00 0.00 0.00
20260905025443 80 260 0.0 0.0 0.00 0.00 0.00
20260905024944 79 260 0.0 0.0 0.00 0.00 0.00
20260905024440 79 260 0.0 0.0 0.00 0.00 0.00
20260905023941 79 260 0.0 0.0 0.00 0.00 0.00
20260905023437 80 260 0.0 0.0 0.00 0.00 0.00
20260905023029 79 260 0.0 0.0 0.00 0.00 0.00
20260905022938 79 260 0.0 0.0 0.00 0.00 0.00
20260905022436 79 260 0.0 0.0 0.00 0.00 0.00
20260905021937 80 260 0.0 0.0 0.00 0.00 0.00
20260905021433 80 260 0.0 0.0 0.00 0.00 0.00
20260905020432 80 260 0.0 0.0 0.00 0.00 0.00
20260905015934 79 260 0.0 0.0 0.00 0.00 0.00
20260905014932 80 260 0.0 0.0 0.00 0.00 0.00
20260905014430 80 260 0.0 0.0 0.00 0.00 0.00
20260905013931 80 260 0.0 0.0 0.00 0.00 0.00
20260905013428 80 260 0.0 0.0 0.00 0.00 0.00